STARLINK-11703 [DTC] (63759 NORAD) Tracking and Keplerian Element Data

This shows tracking and keplerian element data for the satellite.

Feedback or suggestion? Click here.




ElementValue
Catalog63759
NameSTARLINK-11703 [DTC]
Epoch Orbit3763
Epoch Day354.18955772
Epoch Year2025
RAAN51.3138
Inclination43.0007
Eccentricity0.0001781
Argument of Perigee267.4898
Mean Anonmoly92.5766
Mean Motion15.70882335
Decay Rate0.00234453
L11 63759U 25089J 25354.18955772 .00234453 00000+0 17764-2 0 9994
L22 63759 43.0007 51.3138 0001781 267.4898 92.5766 15.70882335 37634



Live tracking and technical data element details for STARLINK-11703 [DTC] (NORAD 63759). STARLINK-11703 [DTC] can be tracked NOW for your location showing map with azimuth and elevation plus other details from your city location.







IsCatalogInMostPopularTable: catalog: 63759, numindb: 7
Update: records affected: 1



GetName: 63759 STARLINK-11703 [DTC]

Hit Count: updated at: Tue, 21 Apr 2026 19:59:57 GMT